Regional Weather Roundup
Issued by NWS

Home | Current Version | Previous Version | Text Only | Print | Product List | Glossary Off
Versions: 1 2 3 4 5 6 7 8 9 10 11 12 13 14 15 16 17 18 19 20 21 22 23 24 25 26 27 28 29 30 31 32 33 34 35 36 37 38 39 40 41 42 43 44 45 46 47 48 49 50

000
ASUS45 KBOU 021207
RWRCO

WEATHER ROUNDUP FOR COLORADO
NATIONAL WEATHER SERVICE DENVER/BOULDER CO
600 AM MDT SAT MAY 02 2015

NOTE: "FAIR" INDICATES FEW OR NO CLOUDS BELOW 12000 FEET WITH NO
SIGNIFICANT WEATHER AND/OR OBSTRUCTIONS TO VISIBILITY.

COZ001>005-013-030-031-021300-
...NORTHWEST COLORADO...

CITY           SKY/WX    TMP DP  RH WIND       PRES   REMARKS
CRAIG          MOCLDY    43  37  79 NE7       30.06F
HAYDEN         CLOUDY    43  34  70 SE9       30.09F
MEEKER         PTCLDY    41  34  76 SE3       30.10R
MOUNT WERNER   NOT AVBL
STEAMBOAT SPGS CLOUDY    36  33  88 E6        30.12R
WALDEN         CLEAR     32  30  93 SE9       30.15S WCI  24
$$

COZ006>008-011-021300-
...WEST CENTRAL VALLEYS...

CITY           SKY/WX    TMP DP  RH WIND       PRES   REMARKS
GRAND JUNCTION PTCLDY    54  37  52 CALM      30.00S
MONTROSE       MOCLDY    48  33  56 SE7       30.08F
EAGLE          CLEAR     37  34  87 S5        30.16S
RIFLE          PTCLDY    43  35  73 SE3       30.07S
DELTA          MOCLDY    52  35  52 E3        30.05F
NUCLA          MOCLDY    48  28  46 SE7       30.10S
$$

COZ017>023-064>068-021300-
...SOUTHWEST COLORADO...

CITY           SKY/WX    TMP DP  RH WIND       PRES   REMARKS
DURANGO        PTCLDY    40  29  64 CALM      30.13R
CORTEZ         CLEAR     38  31  76 E3        30.08S
PAGOSA SPRINGS PTCLDY    37  27  66 CALM      30.19S
TELLURIDE      PTCLDY    42  24  49 SE6       30.26R
WOLF CREEK PAS NOT AVBL
$$

COZ009-010-012-014-032>034-037-058>063-021300-
...CENTRAL COLORADO...

CITY           SKY/WX    TMP DP  RH WIND       PRES   REMARKS
ASPEN          PTCLDY    35  29  78 SW6       30.16S WCI  30
BUENA VISTA    NOT AVBL
COPPER MTN     PTCLDY    37  21  52 W12G17    30.33F
BERTHOUD PASS  FAIR      30  23  74 W24G32    30.33S WCI  16
COTTONWOOD PAS CLOUDY    45  28  53 W3        30.25S
GUNNISON       MOCLDY    36  28  75 S3        30.23S
KREMMLING      FOG       30  28  93 CALM      30.19S VSB 1/2
LEADVILLE      PTCLDY    28  26  92 E5        30.25F WCI  23
MONARCH PASS   MOCLDY    34  27  75 W17       30.45F WCI  23
SALIDA         CLOUDY    41  36  82 W6        30.25S
SUNLIGHT       MOCLDY    39  28  65 CALM      30.32S
WILKERSON PASS MOCLDY    36  27  69 W8        30.33S
$$

COZ069>075-021300-
...SAN LUIS VALLEY/SANGRE DE CRISTO MOUNTAINS...

CITY           SKY/WX    TMP DP  RH WIND       PRES   REMARKS
ALAMOSA        PTCLDY    34  29  82 CALM      30.17R
LA VETA PASS   PTCLDY    39  28  65 MISG      30.27S
SAGUACHE       PTCLDY    41  30  65 N13       30.19S
$$

COZ035-036-038>040-021300-
...NORTHERN COLORADO FRONT RANGE...

CITY           SKY/WX    TMP DP  RH WIND       PRES   REMARKS
DENVER INTL AP MOCLDY    49  40  71 SW10      29.99S
DMNS CITY PARK   N/A     51  38  61 S5        30.00R
AURORA         MOCLDY    50  40  68 S8        30.01S
FRONT RANGE AP PTCLDY    52  41  66 SW13      30.00S
ERIE MUNI ARPT PTCLDY    43  42  96 SW3       29.99F
BOULDER MUN AP PTCLDY    50  45  81 CALM      29.99S
CENTENNIAL     MOCLDY    51  38  60 SW10      30.02S
BROOMFIELD     PTCLDY    50  37  62 CALM      30.01S
FORT COLLINS   PTCLDY    45  45 100 CALM      30.00S
LONGMONT       PTCLDY    43  41  90 CALM      30.00F
$$

COZ041-046-047-076>085-087-088-021300-
...PIKES PEAK/PALMER DIVIDE AND SOUTHERN FOOTHILLS...

CITY           SKY/WX    TMP DP  RH WIND       PRES   REMARKS
COLO. SPRINGS  PTCLDY    44  38  79 N13       30.05S
A. F. ACADEMY  PTCLDY    43  39  85 N6        30.06S
ELLICOTT         N/A    N/A N/A N/A CALM      30.03F
FALCON         CLEAR     43  36  76 N7        30.09S
FORT CARSON    MOCLDY    46  42  84 N9        30.01F
LIMON          CLEAR     39  37  92 N7        30.00S
MONUMENT HILL  PTCLDY    45  34  65 SW8       30.08S
TRINIDAD       PTCLDY    51  40  65 SW14      30.03F
$$

COZ042>045-048>051-090-091-021300-
...NORTHEAST COLORADO...

CITY           SKY/WX    TMP DP  RH WIND       PRES   REMARKS
GREELEY ARPT   PTCLDY    43  36  75 W3        29.99S
AKRON          PTCLDY    48  45  89 W3        29.95S
BURLINGTON     CLEAR     50  46  86 SW10      29.96F
WRAY           CLEAR     51  49  92 SW8       29.92F
STERLING       PTCLDY    45  45 100 SW6       29.93S
HOLYOKE        NOT AVBL
FORT MORGAN    PTCLDY    44 -19   6 W7        29.96S
$$

COZ086-089-092>099-021300-
...SOUTHEAST COLORADO...

CITY           SKY/WX    TMP DP  RH WIND       PRES   REMARKS
PUEBLO         MOCLDY    50  46  86 W5        29.99S
LA JUNTA       PTCLDY    51  47  86 SW12      29.97F
LAMAR          FOG       46  46 100 NW5       29.95S VSB 1/4
SPRINGFIELD      N/A     48  43  82 SW8       29.98F
$$


USA.gov is the U.S. government's official web portal to all federal, state and local government web resources and services.